Location: Dehesa de la Cepeda
(40.6574°N, 4.3013°W)
Time: 02:27:35
(UTC+00:00)

Courier 1B - Pass Details

Date: 09 August 2021
Orbit: 963 x 1209 km, 28.3° (Epoch: 17 September)

Event Time Altitude Azimuth Distance (km) Brightness Sun altitude
Rises 15:14:49 0° 221° (SW) 3,909 11.3 45.2°
Reaches altitude 10° 15:18:15 10° 206° (SSW) 2,997 10.7 44.6°
Maximum altitude 15:23:33 21° 160° (SSE) 2,327 9.7 43.7°
Drops below altitude 10° 15:29:02 10° 114° (ESE) 3,107 9.9 42.7°
Sets 15:32:40 0° 100° (E) 4,094 10.4 42.0°
